STARLINK-35897

Last updated on Tue Dec 16 2025 00:02:05 GMT+0000 (Coordinated Universal Time)

1 66501U 25263S 25349.33335648 .00052501 00000+0 12566-2 0 9998 2 66501 43.0000 110.2238 0001364 265.3285 20.4759 15.40672129 6054
UTC large
Height (km)
Speed (km/s)
/
Latitude / Longitude
Inclination (degrees)
Orbital Period (minutes)
Azimuth
Elevation
Range (km)
Doppler Factor

Next 0 passes for location: London (51.5072 / 0.1276)

Sorry there are no passes over London.